Helicity
27 63 52 53 38 46 52 68 82 87 90 84 98 106 126 124 110 95 87 106 112 106 104 98 93 96 97 95 93 89 94 93 96 90 91 80 72 69 59 51 46 59 78
62 56 74 73 62 54 64 70 78 79 71 82 89 73 96 116 126 108 99 99 111 115 114 109 105 105 98 86 76 74 79 77 66 54 56 63 58 59 58 49 38 29 44
41 58 62 73 61 53 63 68 71 68 71 79 86 60 60 82 97 115 108 102 91 103 112 115 110 93 80 71 68 69 67 59 53 51 53 57 53 55 54 48 35 24 12
29 57 64 63 80 92 87 86 77 81 76 76 87 76 55 75 94 88 90 94 78 80 83 87 89 88 74 68 65 60 57 57 62 65 66 59 59 55 47 35 32 29 22
34 70 48 61 80 85 90 103 102 82 76 88 80 52 69 74 80 72 66 69 67 62 45 61 60 72 72 65 57 53 48 52 53 51 56 58 58 58 57 39 32 28 27
25 36 42 45 62 80 91 79 81 78 76 65 64 65 46 48 44 38 33 29 32 45 65 65 69 70 71 68 72 64 53 47 44 44 48 59 61 62 55 51 44 43 41
9 -2 22 28 48 54 93 82 64 61 74 60 54 43 -17 -24 -6 -1 2 5 14 20 21 42 64 71 65 73 59 56 39 32 36 49 61 75 71 65 51 54 54 54 51
17 18 20 14 11 40 66 65 54 48 56 66 40 22 13 -32 -41 -40 -39 -29 -22 -24 -6 13 35 50 54 42 42 30 55 28 24 35 46 92 78 62 52 45 57 62 61
3 -2 -10 3 6 8 34 40 37 38 41 60 54 25 -24 -9 -22 21 11 19 5 -5 1 3 9 -3 -1 14 34 21 -9 -2 24 11 -11 44 90 42 41 42 45 64 67
-6 -7 -7 -8 -3 -2 27 54 44 42 40 38 34 45 36 4 -18 7 36 38 45 29 21 9 7 19 17 22 29 42 2 -20 -9 16 4 2 53 33 30 39 35 53 73
-0 -12 -12 -15 -14 7 30 49 53 47 43 50 32 16 31 46 28 -34 -48 35 37 17 12 16 19 33 33 52 38 55 19 -14 -8 24 12 -14 11 26 15 32 34 37 70
15 5 -16 -22 -7 14 20 37 58 68 68 47 33 27 26 9 35 47 38 6 27 32 36 25 43 40 35 14 5 17 9 22 16 -12 -21 -31 -3 34 20 28 43 42 63
19 13 5 -16 5 13 10 33 42 46 51 52 53 56 45 24 39 36 48 44 19 22 -10 30 53 37 20 35 34 20 6 8 3 59 93 59 23 18 46 34 49 43 65
4 12 23 31 31 25 19 39 43 48 58 63 68 66 57 51 46 42 38 56 57 64 62 47 25 28 33 34 31 27 19 -0 59 99 64 43 51 28 22 55 50 41 59
34 6 10 37 30 47 38 51 59 50 55 54 58 68 82 84 64 59 52 50 42 39 53 53 53 45 56 45 31 12 6 23 48 43 14 39 21 25 14 48 15 18 46
31 27 3 20 19 33 38 50 54 54 52 59 57 53 65 77 71 75 67 56 64 60 38 54 44 53 46 53 40 10 17 39 54 35 28 16 25 13 22 16 -3 5 12
38 34 28 13 22 31 39 54 57 48 40 60 67 56 38 63 65 72 75 76 80 81 56 57 57 54 54 65 50 47 36 31 26 46 38 36 47 38 40 47 20 -8 -9
42 34 42 42 51 49 29 29 36 51 47 30 28 48 44 70 54 53 71 73 69 69 66 35 40 37 41 50 38 21 30 12 5 25 40 45 57 68 77 80 67 60 59
44 41 45 48 40 13 25 32 29 29 36 30 30 46 47 69 62 62 63 63 60 58 67 58 40 46 44 38 30 27 16 8 25 31 49 53 76 98 80 73 70 52 60
54 50 50 54 50 59 64 66 58 51 36 35 34 35 40 52 61 62 54 43 48 56 50 55 52 41 36 38 30 28 27 27 35 41 71 73 97 81 75 94 83 82 96
38 31 48 53 69 74 73 62 62 53 46 41 59 62 69 88 105 98 68 62 65 80 83 56 56 54 45 34 31 28 23 24 25 50 65 61 73 89 103 110 122 140 145
47 63 64 60 47 59 83 77 67 64 63 51 49 72 88 100 79 103 88 51 35 53 67 85 86 68 53 46 43 32 29 25 26 37 31 48 68 89 73 95 135 158 188
76 71 73 85 72 57 80 82 63 66 80 95 89 97 98 71 102 53 62 57 87 97 86 64 65 64 52 59 38 40 39 29 38 61 32 48 53 67 62 123 133 148 153
76 58 39 63 60 80 101 93 78 91 120 164 128 119 116 115 69 19 31 77 95 98 95 79 97 115 100 67 43 46 58 67 66 75 88 59 59 54 64 105 134 137 114
83 73 62 76 76 79 106 90 90 109 113 122 129 136 127 120 110 83 75 79 99 109 129 175 180 164 168 190 148 52 75 74 80 92 91 44 42 27 54 113 87 21 54
93 97 104 96 104 91 122 98 69 65 72 67 75 85 137 118 102 97 91 91 98 98 112 146 183 210 192 174 189 123 85 100 99 81 95 56 68 44 43 60 45 49 55
Wind_Speed
35 29 23 26 29 27 27 28 28 26 21 20 22 36 42 45 42 43 42 40 39 37 35 34 33 32 30 28 28 28 29 28 27 28 28 27 28 28 27 23 14 12 15
36 35 29 29 29 29 29 30 31 31 21 23 22 30 40 40 38 41 41 39 37 36 34 33 32 30 30 29 28 26 24 24 26 29 29 30 31 32 28 26 23 23 15
38 39 34 31 32 28 30 32 33 31 27 26 26 33 43 39 33 36 38 38 37 35 33 30 29 26 25 24 23 22 23 26 27 27 26 26 27 26 26 29 29 33 32
43 39 34 37 35 31 30 27 29 29 31 34 34 38 43 40 36 34 37 37 35 33 32 30 27 27 27 27 27 27 27 30 31 30 27 28 25 22 18 21 29 35 34
44 38 35 32 30 26 25 27 27 32 37 38 41 42 35 35 36 35 34 33 32 30 27 25 25 24 27 27 29 30 30 32 34 36 34 34 30 25 17 12 21 28 29
43 38 37 30 28 26 27 30 28 27 29 40 39 34 36 37 35 34 31 29 29 27 25 24 22 23 24 25 28 31 33 34 37 39 42 41 37 35 23 14 15 23 27
41 41 41 40 35 29 26 28 27 26 23 27 29 22 25 33 34 32 30 29 27 24 23 21 19 18 19 19 24 31 36 39 40 39 44 47 46 44 34 19 13 18 27
41 41 42 45 42 34 30 23 25 31 27 25 24 21 22 27 29 26 29 23 23 21 21 17 14 15 18 22 25 30 36 40 41 33 35 42 48 45 46 27 16 16 23
43 44 45 44 44 40 34 26 25 28 27 24 24 22 25 23 24 33 32 33 30 24 25 24 18 30 38 34 35 35 43 38 51 18 8 41 56 40 40 32 20 16 20
45 43 42 42 43 43 35 33 30 26 26 24 26 27 27 22 22 40 34 35 36 36 36 34 35 41 40 39 36 32 30 17 16 11 6 7 34 43 29 33 23 14 20
44 45 45 44 43 39 38 36 27 24 27 29 26 23 28 33 30 15 33 43 41 34 39 35 40 41 40 34 19 6 17 18 7 4 13 22 7 36 35 34 24 15 20
46 46 48 46 44 40 42 40 37 29 27 26 25 25 27 18 27 31 31 26 34 43 34 32 35 36 36 28 10 5 11 11 5 30 37 26 10 40 39 39 28 20 22
51 50 48 50 48 41 42 40 41 38 32 26 24 27 28 26 27 30 31 31 31 32 36 37 41 37 25 23 16 15 4 26 26 59 59 61 41 37 38 32 25 24 23
53 54 52 47 44 42 42 33 33 29 22 23 25 25 23 22 23 27 28 33 35 32 35 35 38 42 43 44 45 54 46 30 58 54 56 60 61 55 39 29 16 14 17
33 49 54 34 19 30 31 28 28 30 28 28 29 33 32 23 21 23 24 26 30 31 33 39 39 41 48 51 52 55 57 53 49 49 52 56 58 56 56 31 12 14 8
22 12 2 15 13 16 16 21 30 29 21 23 24 21 23 29 27 27 26 28 28 27 24 34 36 44 53 46 50 52 54 53 53 53 52 55 59 58 56 54 23 23 18
30 24 19 9 16 31 29 36 35 22 6 22 22 15 10 24 26 28 28 26 25 24 18 30 32 44 47 48 51 52 53 51 52 52 53 57 57 54 52 50 48 42 30
37 41 32 14 11 20 21 29 10 6 2 2 6 10 6 22 23 24 22 21 24 26 29 26 41 43 38 41 45 50 51 46 48 50 53 55 54 53 53 51 50 51 50
47 44 41 31 27 21 17 23 16 16 13 4 4 10 12 16 21 26 26 25 31 33 29 31 34 38 39 39 40 42 47 48 49 49 52 52 51 52 53 52 53 54 53
53 50 37 33 30 28 29 32 32 31 24 26 23 21 19 18 25 28 32 38 38 37 39 39 38 43 40 41 43 43 49 46 50 40 49 50 47 51 50 53 51 55 55
52 46 41 30 28 29 29 35 36 32 28 27 26 30 26 27 29 29 37 41 37 36 30 37 39 41 44 46 47 46 43 51 45 44 50 45 48 48 50 53 54 56 56
62 48 44 40 39 40 40 43 40 40 38 31 25 26 29 34 37 37 39 43 41 41 39 35 33 35 42 43 44 47 45 45 43 47 48 41 47 50 49 51 53 54 57
40 43 45 38 42 43 47 42 41 38 38 36 33 27 31 39 44 40 36 35 39 40 40 39 41 42 44 43 45 46 44 43 39 49 43 39 48 49 44 52 54 55 58
30 29 31 32 37 39 43 35 30 33 33 35 32 36 29 38 40 42 36 38 38 41 43 42 40 41 45 48 41 43 43 41 34 45 51 43 50 50 44 47 55 57 59
25 24 25 27 31 35 37 35 34 35 35 38 35 30 29 32 36 36 36 36 37 38 37 34 34 38 43 47 47 42 46 45 42 44 55 48 53 55 49 47 53 58 63
19 16 20 25 29 33 36 35 32 28 27 28 28 30 32 34 34 34 33 33 36 38 34 36 40 42 44 46 48 48 48 44 44 45 55 55 56 55 49 43 53 60 59
Wind_Direction
192 202 216 214 211 214 215 210 208 201 212 206 190 165 151 142 144 143 141 146 147 147 146 144 141 138 135 132 123 114 106 100 96 92 87 85 80 75 71 75 113 131 175
189 189 203 209 209 210 213 207 202 197 219 207 204 179 161 157 153 145 144 150 154 152 150 147 145 140 132 123 115 111 107 98 90 84 79 74 71 66 70 73 78 74 96
191 188 198 205 201 211 205 204 202 206 210 205 199 182 150 157 169 158 152 150 152 154 157 156 149 145 135 127 122 115 102 91 84 79 75 71 66 65 67 66 66 58 56
175 184 198 190 193 202 200 209 208 209 203 192 188 173 147 155 167 169 157 153 151 153 147 143 141 132 124 115 106 101 95 82 76 72 70 64 64 62 67 71 65 56 57
172 189 195 199 202 209 211 208 210 203 191 190 169 153 178 177 174 178 173 164 152 155 155 154 144 134 112 106 95 87 83 76 68 64 62 59 57 58 63 76 75 69 67
173 195 199 211 212 213 213 206 211 216 219 182 188 212 173 162 165 168 180 186 176 168 173 161 144 127 110 96 82 71 66 63 60 59 53 50 51 50 59 77 85 75 73
182 189 191 200 208 215 222 223 228 230 250 251 243 293 23 113 141 165 163 167 178 172 136 138 136 124 104 92 71 55 45 45 48 50 46 42 40 41 50 69 95 85 72
180 186 186 185 194 219 228 255 245 235 251 282 294 332 9 65 117 19 4 129 139 109 95 108 112 91 74 57 47 35 30 26 31 43 43 40 35 39 38 60 88 98 79
182 177 181 190 196 208 237 266 269 257 268 305 317 342 100 83 101 326 347 349 5 34 34 40 58 24 13 19 18 14 3 16 7 42 10 38 26 42 43 56 80 98 85
194 190 205 210 207 219 251 259 271 290 296 313 318 323 335 28 112 245 330 335 337 347 357 3 10 1 12 12 13 15 254 238 252 61 293 20 42 38 54 53 74 103 93
218 214 212 214 220 239 249 258 289 315 311 307 324 347 331 322 342 117 211 281 322 350 347 359 355 357 4 21 48 77 234 231 207 79 283 289 309 40 51 56 76 105 102
220 224 218 218 225 244 246 255 268 298 315 330 337 347 347 26 351 341 349 11 349 330 346 353 357 359 5 29 69 164 241 213 142 278 291 288 286 35 48 51 77 96 99
228 221 231 217 232 254 255 265 270 281 301 326 339 338 344 1 360 350 349 355 1 5 2 355 356 6 36 48 68 63 223 262 264 319 359 4 21 40 42 58 82 85 87
222 231 240 255 263 268 267 290 297 314 331 329 332 342 349 358 12 359 3 350 351 2 3 5 358 1 1 359 359 346 6 16 341 352 356 353 347 342 37 53 109 112 93
291 225 225 288 317 297 301 308 306 312 319 321 321 319 323 341 357 359 1 0 355 355 357 348 346 347 342 338 338 339 348 354 1 1 360 350 348 346 353 39 194 208 164
310 333 135 321 321 324 331 321 305 313 333 335 339 348 342 332 338 345 348 350 352 354 1 354 352 342 328 342 339 340 347 348 342 340 353 345 339 338 344 329 250 244 235
299 316 323 6 316 301 308 296 298 322 8 331 338 357 14 339 334 335 339 347 350 354 4 356 354 339 336 333 331 339 340 349 347 349 342 334 334 325 323 322 310 290 260
290 287 302 330 331 318 325 307 338 352 67 108 2 355 29 345 341 338 344 347 348 349 349 358 346 346 350 346 344 339 338 354 353 348 341 340 337 337 334 333 332 339 342
281 284 287 299 306 315 326 321 333 334 338 353 359 348 349 351 344 340 339 342 339 342 350 354 355 355 354 354 353 353 345 343 349 349 344 342 346 348 345 349 347 349 347
276 278 291 294 301 306 308 308 311 315 321 319 322 326 331 333 332 335 330 322 328 331 328 332 342 342 350 350 347 349 342 353 347 6 356 355 356 351 352 347 350 347 348
272 279 287 295 304 309 312 308 310 317 321 319 319 319 322 327 331 337 320 319 327 332 340 331 336 338 336 335 336 343 350 341 351 352 344 357 357 359 358 357 355 355 359
265 278 281 289 296 301 304 297 304 305 310 320 324 324 325 322 325 325 322 319 322 325 325 332 340 342 336 337 337 337 342 344 345 343 344 355 353 355 2 2 360 3 358
282 279 282 290 295 302 299 303 302 305 307 314 315 322 321 319 316 329 330 335 332 330 329 328 328 329 329 334 333 334 337 339 344 339 344 345 344 348 357 355 358 359 357
290 291 294 301 298 312 304 316 316 311 312 318 320 313 320 318 323 322 327 325 329 326 326 326 330 332 330 330 335 334 335 337 342 337 337 336 335 338 344 347 349 349 349
293 298 305 314 317 317 319 321 322 316 310 306 311 322 324 322 323 325 328 330 328 329 336 344 344 341 339 339 334 331 326 325 325 327 331 330 328 328 332 337 341 344 343
294 313 322 323 329 326 323 326 333 337 335 331 326 327 330 325 323 328 333 334 327 326 329 329 331 335 338 340 339 336 326 324 323 323 327 325 325 328 328 333 337 339 342